Location: Les Jeannots
(43.2262°N, 5.5774°E)
Time: 02:36:25
(UTC+00:00)

Cosmos 2333 Rocket - Pass Details

Date: 05 July 2020
Orbit: 837 x 864 km, 70.8° (Epoch: 04 August)

Event Time Altitude Azimuth Distance (km) Brightness Sun altitude
Exits shadow 20:39:22 - 182° (S) 2,927 4.6 -11.8°
Reaches altitude 10° 20:40:38 10° 179° (S) 2,458 4.2 -12.0°
Maximum altitude 20:46:00 46° 108° (ESE) 1,127 2.5 -12.6°
Drops below altitude 10° 20:51:26 10° 36° (NE) 2,491 4.8 -13.3°
Sets 20:53:59 0° 31° (NNE) 3,436 5.6 -13.6°
